N55XZ X07-KLAL

Flight info

Callsign N55XZ
Flight time N/A
Altitude 500
Route WARBIRD
Aircraft YK55/L-SDE3/L

Departure

Time N/A
Airport X07

Arrival

Time 2026-04-26 20:32
Airport Lakeland Linder International Airport (KLAL)
Time Latitude Longitude Altitude Speed Heading
2026-04-26 20:07 27.89539 -81.61945 123 ft 0 kts 238°
2026-04-26 20:08 27.89538 -81.61947 123 ft 2 kts 239°
2026-04-26 20:08 27.89532 -81.61959 123 ft 2 kts 247°
2026-04-26 20:08 27.89532 -81.61960 123 ft 0 kts 249°
2026-04-26 20:09 27.89531 -81.61961 123 ft 0 kts 227°
2026-04-26 20:09 27.89497 -81.61928 123 ft 13 kts 76°
2026-04-26 20:09 27.89539 -81.61841 123 ft 20 kts 61°
2026-04-26 20:09 27.89608 -81.61710 123 ft 29 kts 57°
2026-04-26 20:10 27.89672 -81.61589 122 ft 18 kts 39°
2026-04-26 20:10 27.89681 -81.61573 121 ft 12 kts 65°
2026-04-26 20:10 27.89667 -81.61530 121 ft 0 kts 154°
2026-04-26 20:11 27.89640 -81.61517 121 ft 14 kts 159°
2026-04-26 20:11 27.89587 -81.61497 120 ft 8 kts 246°
2026-04-26 20:11 27.89513 -81.61642 122 ft 65 kts 239°
2026-04-26 20:12 27.89186 -81.62260 300 ft 102 kts 248°
2026-04-26 20:12 27.89031 -81.62634 526 ft 100 kts 248°
2026-04-26 20:12 27.88922 -81.62898 667 ft 88 kts 248°
2026-04-26 20:12 27.88824 -81.63100 838 ft 97 kts 241°
2026-04-26 20:13 27.88627 -81.63409 933 ft 115 kts 238°
2026-04-26 20:13 27.88384 -81.63879 1019 ft 129 kts 247°
2026-04-26 20:13 27.88257 -81.64326 1108 ft 133 kts 259°
2026-04-26 20:13 27.88207 -81.64897 1224 ft 137 kts 269°
2026-04-26 20:14 27.88207 -81.65301 1119 ft 149 kts 269°
2026-04-26 20:14 27.88204 -81.65704 966 ft 156 kts 270°
2026-04-26 20:14 27.88212 -81.66048 964 ft 155 kts 271°
2026-04-26 20:14 27.88275 -81.66531 916 ft 156 kts 284°
2026-04-26 20:15 27.88444 -81.67015 935 ft 150 kts 289°
2026-04-26 20:15 27.88533 -81.67256 1041 ft 144 kts 289°
2026-04-26 20:15 27.88631 -81.67531 1166 ft 139 kts 288°
2026-04-26 20:15 27.88757 -81.67934 1327 ft 133 kts 287°
2026-04-26 20:16 27.88842 -81.68206 1472 ft 130 kts 285°
2026-04-26 20:16 27.88906 -81.68460 1642 ft 125 kts 281°
2026-04-26 20:16 27.88958 -81.68814 1748 ft 127 kts 275°
2026-04-26 20:16 27.89002 -81.69323 1824 ft 134 kts 274°
2026-04-26 20:17 27.89159 -81.71133 1975 ft 140 kts 274°
2026-04-26 20:17 27.89417 -81.73979 2289 ft 142 kts 274°
2026-04-26 20:17 27.89548 -81.75554 2408 ft 145 kts 274°
2026-04-26 20:17 27.89561 -81.75707 2396 ft 147 kts 274°
2026-04-26 20:18 27.89626 -81.76354 2362 ft 150 kts 276°
2026-04-26 20:18 27.89691 -81.76943 2421 ft 147 kts 274°
2026-04-26 20:18 27.89741 -81.77438 2627 ft 137 kts 274°
2026-04-26 20:18 27.89771 -81.77860 2776 ft 132 kts 275°
2026-04-26 20:19 27.89798 -81.78284 2636 ft 146 kts 271°
2026-04-26 20:19 27.89816 -81.78986 2464 ft 155 kts 270°
2026-04-26 20:19 27.89819 -81.79492 2368 ft 157 kts 269°
2026-04-26 20:19 27.89809 -81.80152 2274 ft 157 kts 267°
2026-04-26 20:20 27.89766 -81.81212 2074 ft 159 kts 266°
2026-04-26 20:20 27.89747 -81.81696 2022 ft 158 kts 266°
2026-04-26 20:20 27.89713 -81.82328 1970 ft 157 kts 265°
2026-04-26 20:20 27.89702 -81.83157 2010 ft 149 kts 271°
2026-04-26 20:21 27.89728 -81.83915 2522 ft 134 kts 271°
2026-04-26 20:21 27.89748 -81.84356 2576 ft 137 kts 272°
2026-04-26 20:21 27.89770 -81.84778 2639 ft 139 kts 272°
2026-04-26 20:21 27.89801 -81.85627 2558 ft 146 kts 270°
2026-04-26 20:22 27.89848 -81.86983 2341 ft 153 kts 273°
2026-04-26 20:22 27.90195 -81.88972 2753 ft 144 kts 284°
2026-04-26 20:22 27.90401 -81.90044 2677 ft 150 kts 275°
2026-04-26 20:22 27.90505 -81.91132 2534 ft 153 kts 274°
2026-04-26 20:23 27.90572 -81.91980 2324 ft 157 kts 275°
2026-04-26 20:23 27.90659 -81.92841 2108 ft 159 kts 275°
2026-04-26 20:23 27.90743 -81.93589 2049 ft 159 kts 277°
2026-04-26 20:23 27.90867 -81.94738 1793 ft 163 kts 273°
2026-04-26 20:24 27.90863 -81.95888 1783 ft 151 kts 266°
2026-04-26 20:24 27.90807 -81.96860 2430 ft 137 kts 266°
2026-04-26 20:24 27.90749 -81.97644 2645 ft 137 kts 264°
2026-04-26 20:24 27.90672 -81.98579 2534 ft 144 kts 264°
2026-04-26 20:25 27.90603 -81.99532 2431 ft 150 kts 265°
2026-04-26 20:25 27.90558 -82.00173 2337 ft 153 kts 264°
2026-04-26 20:25 27.90441 -82.01720 2555 ft 145 kts 268°
2026-04-26 20:25 27.90523 -82.02730 2559 ft 149 kts 291°
2026-04-26 20:26 27.91226 -82.03405 2446 ft 160 kts 333°
2026-04-26 20:26 27.92134 -82.03655 2242 ft 169 kts 349°
2026-04-26 20:26 27.92887 -82.03633 2202 ft 170 kts
2026-04-26 20:26 27.93553 -82.03491 2142 ft 172 kts
2026-04-26 20:27 27.94035 -82.03383 2098 ft 173 kts
2026-04-26 20:27 27.94732 -82.03197 1998 ft 176 kts 12°
2026-04-26 20:27 27.95413 -82.02896 1875 ft 179 kts 21°
2026-04-26 20:27 27.95958 -82.02425 2338 ft 161 kts 37°
2026-04-26 20:28 27.96322 -82.01856 2477 ft 162 kts 76°
2026-04-26 20:28 27.96363 -82.01090 2444 ft 168 kts 89°
2026-04-26 20:28 27.96375 -82.00266 2355 ft 173 kts 90°
2026-04-26 20:28 27.96389 -81.99255 2101 ft 178 kts 86°
2026-04-26 20:29 27.96517 -81.98386 1985 ft 175 kts 51°
2026-04-26 20:29 27.97178 -81.97955 1814 ft 166 kts
2026-04-26 20:29 27.97879 -81.97832 1595 ft 130 kts 358°
2026-04-26 20:29 27.98385 -81.97834 1273 ft 101 kts 332°
2026-04-26 20:30 27.98663 -81.98108 972 ft 78 kts 291°
2026-04-26 20:30 27.98788 -81.98412 766 ft 68 kts 287°
2026-04-26 20:30 27.98876 -81.98700 620 ft 66 kts 279°
2026-04-26 20:30 27.98935 -81.99026 486 ft 73 kts 275°
2026-04-26 20:31 27.98953 -81.99728 318 ft 78 kts 266°
2026-04-26 20:31 27.98942 -82.00647 227 ft 77 kts 270°
2026-04-26 20:31 27.98933 -82.01286 149 ft 73 kts 270°
2026-04-26 20:31 27.98934 -82.01572 145 ft 69 kts 269°
2026-04-26 20:32 27.98934 -82.01832 131 ft 49 kts 268°
2026-04-26 20:32 27.98926 -82.02003 129 ft 0 kts 90°
2026-04-26 20:32 27.98926 -82.01981 129 ft 6 kts 276°
2026-04-26 20:32 27.98930 -82.02216 128 ft 46 kts 268°
2026-04-26 20:33 27.98917 -82.02454 125 ft 30 kts 269°
2026-04-26 20:33 27.98916 -82.02640 124 ft 23 kts 269°
2026-04-26 20:33 27.98917 -82.02817 124 ft 32 kts 276°
2026-04-26 20:33 27.98923 -82.03001 126 ft 27 kts 270°
2026-04-26 20:34 27.98850 -82.03120 126 ft 16 kts 162°
2026-04-26 20:34 27.98816 -82.02979 125 ft 21 kts 85°
2026-04-26 20:34 27.98816 -82.02843 123 ft 24 kts 87°
2026-04-26 20:34 27.98818 -82.02732 122 ft 25 kts 92°
2026-04-26 20:35 27.98816 -82.02595 123 ft 26 kts 88°
2026-04-26 20:35 27.98815 -82.02421 124 ft 25 kts 90°
2026-04-26 20:35 27.98771 -82.02296 126 ft 16 kts 182°
2026-04-26 20:35 27.98664 -82.02300 126 ft 16 kts 176°
2026-04-26 20:36 27.98601 -82.02216 126 ft 24 kts 88°
2026-04-26 20:36 27.98635 -82.02115 127 ft 17 kts 327°
2026-04-26 20:36 27.98649 -82.02132 126 ft 0 kts 252°
2026-04-26 20:37 27.98614 -82.02126 127 ft 7 kts